Location: Whitehorse
(60.7170°N, 135.0500°W)
Time: 02:04:50
(UTC-07:00)

SL-16 R/B - Visible Passes

Search period start: 24 May 2015 00:00
Search period end: 03 June 2015 00:00
Orbit: 840 x 851 km, 71.0° (Epoch: 23 May)

Date Brightness Start Highest point End Pass type
(mag) Time Alt. Az. Time Alt. Az. Time Alt. Az.
24 May 3.1 01:36:29 10° S 01:41:23 34° ESE 01:46:29 10° NE visible
24 May 2.4 03:19:28 10° SW 03:25:11 78° NW 03:30:57 10° NE visible
25 May 3.1 01:22:24 10° S 01:27:23 33° ESE 01:32:27 10° NE visible
25 May 2.4 03:05:27 10° SW 03:11:09 79° NW 03:16:56 10° NE visible
26 May 3.2 01:08:25 10° S 01:13:23 32° ESE 01:18:25 10° NE visible
26 May 2.4 02:51:25 10° SW 02:57:08 81° NW 03:02:54 10° NE visible
27 May 3.2 00:54:27 10° S 00:59:23 32° ESE 01:04:23 10° NE visible
27 May 2.4 02:37:23 10° SW 02:43:07 82° NW 02:48:53 10° NE visible
28 May 3.2 00:40:29 10° S 00:45:22 31° ESE 00:50:21 10° NE visible
28 May 2.3 02:23:22 10° SW 02:29:05 83° NW 02:34:51 10° NE visible
29 May 3.2 00:26:31 10° SSE 00:31:22 30° ESE 00:36:18 10° NE visible
29 May 2.3 02:09:21 10° SW 02:15:04 85° NW 02:20:50 10° NE visible
30 May 2.3 01:55:19 10° SW 02:01:02 86° NW 02:06:49 10° NE visible
31 May 2.3 01:41:17 10° SW 01:47:01 87° NW 01:52:47 10° NE visible
01 Jun 2.3 01:27:16 10° SW 01:33:00 89° NW 01:38:46 10° NE visible
02 Jun 2.3 01:13:16 10° SW 01:18:59 90° SSE 01:24:45 10° NE visible
02 Jun 3.7 02:58:23 10° W 03:03:45 39° NNW 03:09:07 10° NE visible
